الصفحة الرئيسية
METAR-TAF:

METAR-TAF

مطار :

Puerto Lempira, هندوراس

دائرة عرض: 15-13N, خط طول: 083-48W, ارتفاع: 13 متر

مراقبة الطقس الحالي

تاريخ ووقت الإصدار 31 دقيقة قبل الساعة 21:00UTC
ريح 5 عقدة من الشمال
درجة الحرارة 29°درجة مئوية
الرطوبة 70%
ضغط 1010 hPa
الرؤية 10 كم أو أكثر
غيوم متفرقة على ارتفاع 2800 قدم, مزن ركامية عمودية.

METAR: MHPL 132100Z 36005KT 9999 SCT028TCU 29/23 Q1010

زمن: 15:31 (21:31 UTC)


TAF: مفقودة

أرصاد الطقس والتوقعات من أكثر من 4000 مطار (تقارير الطقس للمطار METAR والتنبؤ بالطقس بالمطارTAF).

المحطات المتاحة هي النقط الصفراء والحمراء على الخريطة.

حرك المؤشر فوق النقطة لمعرفة اسم المحطة.

ثم انقر لمعرفة أرصاد وتوقعات الطقس.

لتغيير الخارطة: اضغط على الأزرار الخضراء مع رمز الصليب الأسود للتكبير. على الزر الأخضر مع شرطة للتصغير، أو على الأسهم الخضراء للخرائط المجاورة.


METAR-TAF: